GFSSE_925_rhum_021.txt.gz
RH
96 84 77 70 56 46 48 50 55 48 37 31 25 18 17 18 18 30 32 36 53 69 72 74 70 63 46 45 41 42 46 66 66 57 61 93 94 95 82 79 83 90 94
100 88 77 69 54 44 47 57 57 45 34 28 21 19 20 17 27 33 32 38 55 69 70 70 67 44 42 42 41 50 57 75 68 41 42 87 93 93 89 84 83 94 94
100 89 81 70 53 54 60 62 58 43 31 28 24 25 23 23 31 30 30 31 39 62 65 63 58 38 40 45 54 55 63 71 61 48 48 54 78 90 86 66 60 67 88
98 99 86 68 59 61 66 64 53 39 32 28 24 24 22 33 36 33 29 27 26 36 57 53 57 38 34 43 51 54 59 44 37 43 44 48 68 84 80 76 69 48 40
100 98 89 74 69 69 71 61 42 33 34 26 29 29 37 36 35 30 30 28 32 40 37 36 41 42 34 33 38 42 43 34 40 40 43 54 57 77 69 39 39 42 40
99 100 84 72 70 72 69 49 37 35 37 29 40 40 49 36 42 37 34 35 32 40 42 37 36 44 37 32 32 42 38 41 42 45 58 73 79 80 70 45 45 46 51
91 93 78 64 68 71 56 42 40 42 33 27 31 41 43 47 48 42 35 34 35 34 39 43 38 39 39 36 32 37 46 43 40 39 45 63 79 80 87 88 59 62 80
100 95 85 86 90 75 50 42 42 35 25 23 28 34 36 41 40 35 33 35 35 35 39 45 43 42 44 38 37 34 39 42 37 38 44 53 66 81 88 94 91 80 72
94 97 99 100 98 78 61 48 36 36 20 24 36 37 35 34 32 31 34 35 32 33 42 47 45 44 48 42 40 37 33 31 32 37 48 71 80 80 85 76 50 63 88
87 84 86 90 92 82 64 48 29 22 19 33 35 35 33 32 34 34 37 36 40 43 45 48 50 44 43 42 40 36 35 33 34 34 39 52 71 78 82 45 40 44 50
100 93 92 84 74 68 57 44 34 27 30 37 37 35 36 38 36 39 37 39 42 50 52 52 50 43 40 39 37 37 36 35 34 36 40 39 51 72 79 63 52 48 48
100 97 74 65 69 69 65 47 37 33 44 40 40 48 60 57 46 41 45 56 55 54 53 54 49 40 37 34 34 34 34 36 35 35 41 42 50 58 73 84 71 74 75
98 79 70 72 77 81 65 51 34 40 48 44 50 63 66 63 62 58 57 58 55 51 46 44 37 35 34 35 36 36 36 34 34 39 45 45 50 54 65 79 89 70 77
100 90 75 70 77 82 69 52 42 49 53 60 69 63 62 66 66 65 52 51 48 44 41 40 38 37 37 39 39 38 39 38 35 33 35 40 38 48 62 78 88 86 79
93 87 73 74 80 82 54 46 46 57 69 69 70 66 66 65 62 59 53 49 46 44 42 39 38 37 40 42 42 41 41 40 38 36 33 30 29 37 62 78 82 77 78
82 70 75 79 83 77 51 54 64 70 72 68 70 70 70 63 57 53 50 48 44 42 41 41 42 44 45 45 44 43 39 38 35 34 34 34 35 62 82 78 70 68 70
66 65 72 78 76 64 49 61 72 76 74 71 73 75 66 60 57 56 51 46 43 45 46 47 48 49 48 49 46 44 42 37 34 32 31 37 58 78 72 72 66 68 70
77 74 68 74 78 75 69 65 66 77 77 74 74 73 71 71 63 52 42 40 44 46 47 48 48 48 47 49 49 45 40 36 34 33 31 30 31 60 72 57 68 58 56
74 70 72 75 77 75 73 76 77 78 71 70 75 79 74 62 52 44 44 46 47 46 48 49 49 46 46 45 45 42 40 38 36 36 34 32 31 30 35 36 31 33 44
75 73 74 75 72 73 68 67 73 74 73 72 68 60 54 50 48 46 46 47 49 50 48 45 44 45 44 45 46 43 42 41 39 39 37 33 30 29 29 30 31 34 42
76 73 68 67 72 67 65 67 67 60 53 51 50 48 46 46 48 45 44 48 46 42 39 40 45 46 46 47 50 48 48 44 43 41 38 34 32 32 32 31 32 34 34
74 69 72 70 71 65 60 61 54 47 48 48 49 46 43 43 44 43 44 40 36 32 31 36 41 46 55 55 52 55 67 55 48 42 38 38 34 34 34 33 34 34 35
73 69 67 70 66 62 59 55 49 49 53 53 51 48 47 46 45 42 34 28 25 23 23 26 34 52 56 55 52 54 72 75 62 49 39 38 38 36 34 32 35 38 37
72 69 65 68 67 64 60 52 48 51 56 53 51 51 48 41 36 30 26 24 24 21 23 36 43 50 60 61 55 54 53 51 68 68 44 43 42 40 37 37 36 30 31
70 74 72 74 70 65 60 54 49 53 52 50 53 47 37 31 28 26 26 27 24 24 42 56 60 61 60 59 58 59 59 57 51 58 67 50 44 42 39 38 38 38 40
73 78 79 78 71 65 62 58 50 53 55 52 51 42 29 28 28 30 31 30 35 44 53 59 58 49 49 53 57 58 60 56 52 56 69 62 60 47 44 45 44 44 42

GFSSE_925_rhum_024.txt.gz
RH
94 89 74 62 55 54 54 53 48 41 33 25 24 30 45 59 31 38 52 69 75 74 72 66 42 40 40 44 48 69 64 41 42 82 85 91 91 94 95 82 82 89 94
92 85 75 58 49 52 54 47 38 33 27 25 25 23 31 30 32 51 64 72 73 72 71 64 45 40 45 47 54 65 54 35 35 44 61 87 90 87 70 58 62 88 94
99 88 73 57 54 60 61 50 34 26 21 25 19 21 31 33 52 57 62 68 70 72 67 54 44 48 52 52 56 55 38 40 40 44 55 78 87 88 86 68 68 72 78
98 92 76 68 65 63 58 49 36 25 27 20 21 31 33 40 45 51 60 67 70 69 68 45 39 47 47 50 54 39 39 44 47 51 58 71 80 79 78 75 70 69 63
99 96 84 88 70 65 59 43 40 26 27 28 30 48 39 48 52 41 48 64 72 72 59 39 31 33 37 41 43 36 42 41 41 42 53 64 75 80 78 72 65 73 82
98 94 87 80 64 66 56 44 33 44 24 35 36 49 64 64 50 36 45 50 60 72 53 38 34 30 31 40 39 43 43 41 43 53 65 78 81 83 88 84 78 86 87
100 98 83 67 64 69 55 42 48 22 27 32 53 58 67 58 37 32 34 41 42 41 46 41 37 35 33 34 42 42 38 36 36 41 51 67 83 85 89 93 78 79 86
100 100 96 87 80 71 51 48 28 43 30 58 66 65 58 40 33 34 35 33 38 45 47 48 41 38 37 37 35 34 33 33 34 36 48 72 79 86 88 92 82 93 95
97 94 97 99 97 64 47 41 43 25 52 49 55 45 35 33 33 36 36 38 42 48 46 47 50 46 40 39 35 34 33 33 33 42 56 71 77 81 80 82 86 91 93
97 100 100 95 87 85 67 64 41 37 42 51 35 33 34 34 38 40 39 41 42 46 49 48 48 45 40 38 36 36 35 34 34 38 42 68 74 77 78 78 76 77 74
88 93 94 84 82 74 60 46 43 53 46 33 35 37 36 37 38 40 43 46 49 50 51 50 44 41 39 37 36 36 35 35 36 41 42 56 60 74 82 78 69 76 82
100 89 78 80 86 71 58 62 42 28 32 36 36 37 39 40 40 42 47 49 52 54 56 48 42 38 35 35 34 34 35 35 35 39 44 49 55 62 82 88 85 87 88
99 100 100 91 83 70 60 50 24 29 39 40 44 54 54 44 43 47 59 60 54 51 46 40 36 35 35 36 37 37 36 35 35 42 43 46 44 60 70 90 89 86 84
98 86 86 74 67 64 86 60 38 42 43 49 62 67 63 61 62 58 59 52 46 41 40 39 38 37 38 39 40 39 38 38 38 34 32 33 37 53 63 87 91 84 81
91 81 79 77 84 90 72 53 38 46 49 53 61 66 66 68 67 54 50 47 44 43 42 40 38 39 41 43 43 41 40 38 37 36 36 34 33 44 67 85 80 78 78
100 85 74 73 88 91 69 51 43 51 60 67 72 69 71 65 61 55 50 47 45 42 41 41 43 44 45 46 44 42 40 38 38 36 34 36 47 63 80 75 71 70 74
96 92 77 69 91 88 69 53 52 62 74 74 72 73 71 64 57 52 50 47 44 43 42 44 47 49 49 48 46 43 40 38 36 33 32 35 62 72 72 74 76 76 73
83 80 75 83 87 83 69 51 65 76 78 75 78 76 68 59 56 54 51 43 40 42 46 48 49 48 47 48 48 44 39 36 34 33 31 31 58 71 63 65 61 51 50
69 70 74 77 81 75 67 59 69 81 80 79 78 76 69 66 60 52 43 40 45 47 48 49 49 45 43 46 46 44 39 37 36 34 34 33 32 30 30 30 32 34 48
76 70 69 76 74 73 73 76 74 83 84 80 79 78 79 68 55 46 43 46 50 49 49 46 42 44 46 48 46 44 42 40 39 36 35 33 32 32 30 30 29 30 36
84 79 75 77 75 79 80 86 90 86 86 83 82 76 67 57 50 47 48 50 50 46 43 44 44 46 47 49 51 51 47 45 42 37 35 36 36 34 34 33 32 32 32
80 77 73 75 76 79 76 77 82 76 70 64 62 56 55 54 51 50 49 46 42 35 32 33 36 46 55 55 53 58 72 60 51 41 39 39 37 36 36 35 33 36 37
81 78 73 71 73 76 73 72 68 66 59 57 54 51 56 54 50 48 41 30 26 23 22 24 31 42 52 54 54 55 72 73 64 54 42 40 38 39 32 33 32 37 32
82 79 77 71 73 73 68 65 60 56 58 53 50 49 50 51 46 37 30 24 22 21 25 33 43 46 57 59 55 54 55 54 69 70 48 44 42 40 38 35 35 36 38
76 79 77 74 75 73 69 64 59 51 51 51 53 52 50 42 35 30 26 25 20 19 22 39 51 56 55 53 58 58 57 57 57 61 66 50 45 44 44 41 41 42 44
74 74 79 78 76 77 71 67 58 52 52 53 56 52 41 37 32 30 28 22 18 33 44 52 54 51 52 48 49 52 55 58 57 58 71 64 61 52 47 46 48 48 46

GFSSE_925_rhum_030.txt.gz
RH
64 73 96 98 97 96 82 69 66 58 52 42 34 42 52 51 55 61 60 61 70 78 84 84 89 92 78 72 55 46 49 63 71 65 78 83 81 80 77 69 67 76 97
66 70 95 99 99 91 77 77 68 59 48 42 50 54 48 53 55 57 61 60 66 78 79 82 90 86 73 38 37 39 43 49 63 71 58 54 77 78 78 68 71 79 92
69 69 84 96 98 88 80 70 58 48 35 36 44 47 49 55 52 60 59 65 75 82 82 82 87 76 41 39 37 37 39 43 53 49 43 43 58 79 80 83 82 84 86
74 71 71 77 75 72 64 56 51 48 50 70 55 53 56 53 50 55 54 64 80 82 83 85 82 41 40 39 35 35 35 48 53 47 42 45 55 86 86 88 88 86 83
79 76 77 70 62 56 51 47 53 65 79 76 72 60 62 52 49 50 56 61 67 70 87 79 44 38 42 37 34 36 38 51 50 46 49 53 56 81 88 86 79 90 91
84 82 85 71 61 55 52 66 73 71 74 72 69 68 57 50 56 52 55 53 56 64 54 46 39 42 40 35 35 36 43 48 42 44 50 61 65 83 85 92 94 94 93
91 92 84 78 73 69 77 73 78 69 54 72 75 67 52 54 58 60 52 42 34 34 38 40 40 42 39 34 34 32 30 41 38 41 49 59 72 81 81 85 92 93 93
96 99 95 84 83 87 89 79 67 62 61 67 57 61 58 64 57 48 43 38 35 34 37 39 42 41 36 33 32 30 32 43 39 41 46 59 76 76 79 82 87 87 88
100 99 98 94 88 87 70 59 63 70 61 58 51 58 58 52 51 46 44 41 38 38 39 40 40 38 35 34 34 33 32 43 41 44 42 53 77 73 73 75 81 85 86
100 100 94 88 79 50 66 61 65 60 70 54 48 51 46 43 44 50 49 48 48 42 42 41 39 37 36 36 35 34 37 41 38 36 44 60 78 75 74 77 81 84 85
100 100 100 93 92 66 64 58 74 76 62 56 45 41 46 54 50 54 60 52 51 51 46 41 40 38 36 35 33 33 38 39 37 36 42 61 80 81 80 82 86 86 87
100 100 93 87 84 80 79 72 91 86 78 68 50 62 64 63 54 56 67 52 51 48 43 40 38 36 41 39 40 38 38 40 37 36 48 50 65 85 88 88 88 87 86
100 100 100 100 97 89 77 78 88 75 56 53 48 59 70 66 64 64 69 65 58 50 46 43 43 44 47 42 43 41 40 34 31 32 50 41 40 64 90 89 85 83 84
100 100 97 79 55 49 46 50 59 56 60 65 45 68 70 61 64 63 60 59 55 52 54 53 52 55 51 49 48 48 45 35 32 35 54 35 38 55 85 89 84 83 81
96 96 71 58 51 57 63 52 56 67 61 55 59 60 57 57 65 62 61 54 51 52 52 52 52 48 50 49 47 44 41 41 40 36 44 39 42 65 82 86 86 82 77
89 95 87 76 65 62 57 62 57 57 53 58 63 72 74 62 68 63 59 54 53 50 51 48 46 45 44 44 47 44 40 38 40 40 39 60 64 70 77 77 78 85 79
87 86 76 77 76 66 71 77 58 61 60 62 73 89 81 74 68 62 54 55 55 55 55 54 51 50 45 42 43 40 38 39 37 43 40 41 51 66 68 76 73 66 64
71 80 80 78 79 78 81 72 57 61 62 67 78 85 82 71 68 64 59 58 56 55 50 50 48 46 43 38 38 35 36 36 42 42 42 41 41 39 55 65 62 58 57
64 67 70 74 76 87 90 77 63 64 69 75 83 82 82 70 67 62 58 61 62 54 54 50 50 43 40 36 36 36 38 36 41 34 39 41 40 36 33 42 31 30 30
62 67 68 76 79 85 78 67 54 66 74 85 84 76 78 67 66 64 63 68 58 52 53 50 45 40 37 35 30 37 41 40 39 40 40 37 40 43 40 39 36 36 34
62 63 65 68 73 78 71 62 58 68 75 84 84 81 78 68 68 66 63 65 55 50 49 51 43 44 40 42 41 44 45 50 46 40 41 38 40 43 44 39 38 34 33
60 65 65 66 70 72 64 55 56 62 68 82 89 86 81 74 68 68 63 59 54 54 54 48 42 38 38 46 44 42 40 42 46 46 40 42 47 44 40 42 43 40 39
54 59 59 62 65 69 62 57 69 74 82 88 89 89 85 78 69 66 65 57 58 51 46 45 43 39 41 49 53 47 40 34 35 39 49 45 46 46 42 41 43 44 42
54 55 58 57 60 66 68 60 68 63 66 76 90 84 75 78 71 63 63 60 57 42 38 39 41 47 50 53 54 49 47 37 27 28 42 46 49 45 42 45 41 43 46
53 56 62 62 63 65 71 67 67 66 62 67 80 68 72 75 70 60 59 57 50 42 41 40 50 62 63 50 47 47 44 40 40 36 34 26 32 36 39 42 44 44 43
51 56 60 65 63 64 69 76 68 65 66 75 69 70 72 74 66 61 56 55 50 43 49 60 52 66 59 56 47 40 34 37 36 36 33 30 31 35 38 41 41 42 44

GFSSE_925_rhum_033.txt.gz
RH
52 77 89 94 90 85 81 75 71 66 52 41 23 26 32 38 41 53 66 75 80 85 90 90 81 84 86 83 69 55 53 55 48 43 69 82 81 82 66 65 68 80 97
58 76 90 94 93 92 91 78 74 62 46 25 20 44 44 43 47 58 66 73 82 87 92 86 80 77 72 41 34 39 52 52 60 53 48 64 79 80 83 76 76 85 90
63 74 96 93 94 95 92 78 70 55 32 25 43 48 48 48 55 60 66 77 82 86 88 81 76 66 39 36 35 42 46 45 45 46 41 48 69 84 86 90 90 87 88
65 75 96 94 95 95 89 76 60 43 35 42 52 52 53 57 59 65 78 86 84 86 87 79 76 48 37 36 35 43 47 46 43 42 42 46 60 88 89 88 85 88 84
66 66 97 97 97 97 84 68 58 49 45 56 59 56 61 61 63 77 84 85 85 88 87 79 57 38 36 33 33 47 46 45 45 45 50 55 59 82 84 76 82 92 92
76 76 88 100 98 86 75 67 60 57 55 65 66 68 71 63 59 67 74 79 84 89 80 56 42 34 31 29 28 40 40 38 39 42 50 61 67 80 86 92 94 95 96
78 92 84 88 82 75 64 63 63 56 67 79 72 70 65 57 52 51 59 61 62 62 43 42 39 32 31 30 30 38 38 36 33 41 51 62 73 78 80 84 88 88 88
90 97 89 83 80 75 72 66 64 67 78 82 72 75 65 59 55 42 37 36 40 41 40 40 37 32 32 32 31 33 39 38 34 39 51 62 76 76 78 82 86 86 86
100 98 97 87 84 90 81 74 72 78 78 82 86 69 58 53 44 39 34 35 38 38 41 39 36 33 34 33 32 35 35 36 35 39 44 58 74 73 75 79 82 86 87
100 97 95 93 95 85 84 86 83 73 82 81 80 62 56 48 40 40 38 38 39 40 40 39 36 36 36 34 33 37 38 36 33 34 49 68 76 74 77 80 83 84 86
100 100 95 91 87 78 65 69 74 80 72 71 65 55 56 49 52 58 56 42 41 42 41 39 38 37 35 34 35 36 36 35 30 34 48 78 82 80 81 84 84 84 85
100 100 95 82 90 73 71 69 66 53 47 72 61 59 55 50 62 66 50 50 49 45 42 40 37 40 42 37 37 34 35 32 28 35 53 62 76 85 87 87 86 85 84
100 100 100 95 82 74 55 55 61 65 69 67 70 64 66 58 56 62 55 54 51 44 44 41 45 42 46 38 42 42 34 29 28 38 44 39 51 80 91 89 85 85 82
100 100 100 95 77 63 69 74 76 81 75 68 67 69 56 62 62 64 60 60 56 51 48 50 52 56 49 46 47 44 39 29 28 39 51 36 37 63 92 88 84 84 80
100 99 100 96 94 92 94 81 66 52 50 55 42 62 50 56 58 54 54 54 51 54 53 51 54 46 47 45 42 37 35 37 35 30 61 27 39 70 91 88 85 84 77
100 92 90 82 79 73 59 53 52 55 43 47 52 53 56 54 60 57 61 54 51 50 50 47 43 43 38 39 42 36 34 32 35 36 38 51 48 67 81 81 86 84 78
87 87 76 62 49 46 47 43 40 43 46 50 47 56 62 54 64 60 56 53 52 50 50 48 46 43 39 35 36 36 35 34 36 37 34 41 57 47 61 74 73 71 68
86 69 56 48 60 62 54 60 59 51 49 46 52 74 71 68 69 65 55 55 54 54 51 44 43 42 38 33 33 31 33 34 38 38 37 37 36 50 47 58 65 60 61
72 66 70 72 61 62 60 63 53 50 60 53 57 75 78 68 66 64 57 58 59 53 48 46 44 40 38 33 34 35 37 36 39 32 36 39 40 32 35 40 36 33 31
65 67 67 71 71 70 76 71 54 48 53 51 69 71 73 65 66 68 57 61 62 53 50 46 44 38 35 34 28 31 41 41 39 39 39 38 36 41 40 39 40 45 37
56 58 57 59 60 66 73 59 46 45 51 61 76 74 68 63 68 68 59 67 63 52 47 51 45 43 36 38 40 41 42 47 49 41 40 37 36 39 41 42 41 34 40
51 54 54 54 57 58 54 48 42 42 45 54 74 70 68 71 65 67 62 65 62 50 51 53 42 38 35 42 43 43 46 44 46 47 40 38 40 43 39 40 42 42 40
48 48 50 52 53 55 50 47 42 41 47 51 65 74 76 75 70 66 66 62 59 50 55 53 47 39 36 45 50 50 45 41 34 40 46 43 41 46 45 40 41 42 43
44 49 50 48 48 50 50 44 41 46 46 52 60 67 74 82 77 64 64 66 60 55 49 52 45 40 45 43 52 52 51 48 37 33 37 44 47 48 46 44 42 42 42
40 44 49 47 47 48 53 51 45 50 51 51 58 72 82 72 76 69 64 67 63 59 47 45 40 48 53 62 53 57 49 44 42 40 39 32 41 37 35 38 41 44 43
37 42 46 46 44 46 50 56 54 53 55 48 58 68 69 70 74 72 63 65 66 56 46 47 50 61 67 65 65 59 43 36 36 38 39 35 31 29 31 36 41 40 40

GFSSE_925_rhum_036.txt.gz
RH
76 90 87 89 84 77 71 65 56 51 46 38 27 25 27 32 43 68 79 83 86 86 82 86 82 81 74 64 53 55 49 49 44 46 78 81 80 79 70 78 87 95 97
83 88 82 83 84 90 76 68 58 50 42 26 18 22 32 43 53 68 78 80 89 82 81 80 79 75 51 45 48 52 59 57 55 54 66 81 82 84 90 88 86 90 93
84 92 82 83 82 90 78 68 58 48 32 22 24 31 42 58 66 72 78 81 89 80 79 78 75 54 31 36 44 45 49 55 60 57 58 73 87 86 89 94 89 86 86
78 94 98 85 87 91 78 68 57 44 33 30 36 45 60 67 67 70 80 80 82 79 79 76 67 31 29 43 45 44 45 50 55 57 61 66 76 92 89 89 94 89 90
77 88 98 96 93 90 76 68 61 50 41 40 53 62 67 72 75 78 79 83 82 80 80 70 32 27 31 45 45 45 43 47 52 56 63 70 77 84 91 92 94 95 95
88 90 99 99 94 86 77 67 57 54 51 53 64 68 70 80 81 78 82 83 82 80 76 34 29 27 28 36 40 37 35 43 53 60 67 75 80 80 85 90 92 94 95
75 98 100 100 94 88 76 62 53 51 51 69 78 71 70 82 83 84 85 82 64 52 40 32 31 30 33 35 34 36 35 40 50 59 68 78 79 79 81 84 86 88 90
63 99 100 99 96 83 67 60 60 66 77 79 70 72 68 70 68 69 70 60 44 38 36 32 32 33 34 36 32 38 37 37 53 60 68 76 76 78 81 84 86 87 87
71 100 100 100 93 80 77 72 67 72 75 81 77 68 59 52 52 52 47 43 37 38 37 33 34 34 34 35 34 34 34 35 42 56 67 72 76 77 79 81 83 85 85
91 95 92 89 84 89 84 81 85 84 81 76 68 65 57 43 37 37 42 40 40 40 38 35 35 36 35 35 36 36 35 33 45 53 64 75 77 78 81 82 83 84 84
100 100 95 92 90 78 78 86 86 85 81 72 66 62 48 46 42 47 40 41 42 41 39 38 37 36 36 33 34 35 34 32 46 52 59 81 81 80 82 84 85 84 84
100 100 94 92 88 77 74 65 54 81 78 67 55 52 58 59 63 52 42 42 43 42 40 39 39 40 40 39 37 36 32 28 41 42 64 77 85 84 85 87 85 85 83
100 100 99 89 88 68 64 71 79 74 66 54 60 57 57 66 58 49 50 48 46 44 41 40 42 51 45 41 39 37 32 28 41 41 38 48 78 89 89 88 86 84 80
99 100 99 90 84 82 80 69 54 59 58 61 68 62 62 62 53 50 52 54 48 45 43 45 54 51 43 45 44 40 32 29 45 46 41 33 44 85 90 88 88 83 80
100 100 96 90 81 67 61 52 46 55 63 63 67 66 60 57 62 55 60 60 52 53 50 52 52 49 47 44 40 35 36 35 33 54 45 27 40 84 92 88 88 82 77
99 100 100 90 85 75 73 68 67 76 72 66 50 50 47 60 58 58 61 58 55 54 53 52 48 46 43 42 41 34 34 33 35 46 49 43 31 82 88 91 88 83 78
99 97 89 81 80 92 93 91 87 80 54 49 48 48 58 52 56 60 59 56 54 52 51 47 43 41 40 37 36 37 36 34 38 38 57 49 40 58 72 77 78 75 71
91 92 93 98 89 75 76 68 66 60 46 41 44 52 51 57 60 62 61 55 53 52 51 49 45 43 39 35 33 33 33 34 38 39 37 51 58 42 41 45 56 63 63
77 76 77 78 63 62 60 54 46 42 51 54 48 61 65 66 65 66 61 56 55 55 53 46 46 42 39 34 34 35 36 37 39 37 38 38 40 53 50 40 37 35 34
65 58 56 58 55 56 50 44 47 52 52 51 48 61 62 67 69 67 63 58 57 56 52 47 45 42 38 36 34 33 38 40 40 38 39 39 38 39 41 45 42 42 40
64 62 60 60 63 62 64 66 68 51 53 54 55 66 70 67 69 67 66 60 60 58 52 50 47 40 38 36 36 38 37 42 44 42 41 40 37 40 42 43 42 42 42
68 68 74 75 70 66 72 75 65 53 49 52 59 68 66 78 66 67 68 63 65 61 52 50 51 44 40 37 46 48 67 55 50 50 42 40 38 38 40 41 43 42 41
66 66 65 69 73 72 73 62 62 47 46 48 62 60 66 72 67 67 67 66 66 62 54 53 51 43 42 42 47 54 67 67 51 50 47 40 39 41 46 44 40 41 44
56 59 56 54 56 58 57 54 51 45 44 48 65 70 66 68 74 70 67 67 64 62 58 56 53 46 40 46 49 55 53 53 59 58 49 46 43 43 47 48 44 42 42
50 55 54 51 53 54 56 56 50 44 42 43 51 60 68 76 78 80 70 65 66 63 59 56 53 49 43 52 57 57 68 72 51 53 60 46 49 47 47 48 44 44 45
46 50 53 50 50 49 51 51 52 49 46 50 53 58 68 68 71 80 74 67 68 65 65 66 74 55 60 60 60 76 81 79 48 50 59 50 45 41 42 38 40 43 42

GFSSE_925_rhum_039.txt.gz
RH
99 96 91 56 67 50 48 45 44 41 38 38 39 39 38 44 63 78 88 76 84 86 82 77 70 76 77 72 76 70 56 46 40 63 82 85 84 83 88 87 91 98 97
79 98 88 89 77 62 57 52 48 42 34 32 33 38 57 72 68 85 82 70 78 80 74 69 66 73 75 69 62 67 70 70 70 63 84 83 85 88 89 88 87 92 92
52 74 88 88 93 72 60 53 47 35 29 33 39 52 70 71 70 88 75 65 72 76 71 63 60 59 50 55 61 66 73 71 73 71 78 91 86 86 92 88 87 86 87
61 62 89 83 92 70 60 54 44 28 31 39 44 55 64 64 80 86 64 68 74 73 69 57 35 44 48 52 50 46 62 67 68 72 75 82 89 88 88 93 93 92 89
78 92 88 81 94 80 65 55 38 31 34 37 50 59 62 62 80 77 62 70 73 71 64 44 42 46 46 44 40 41 59 59 61 65 77 81 84 86 90 95 94 95 95
80 82 84 86 86 80 73 59 39 42 46 53 58 63 75 76 76 73 69 74 70 67 48 26 33 42 40 38 39 56 54 52 47 38 72 80 81 83 84 88 92 92 95
79 73 94 90 82 76 71 71 54 49 52 60 67 77 80 78 79 77 70 63 48 33 30 31 34 32 34 37 38 56 59 57 52 44 74 80 80 80 82 85 86 87 89
72 66 62 99 88 73 72 66 72 75 69 72 78 83 82 80 83 75 60 48 36 30 32 34 36 35 30 37 36 46 59 57 56 41 70 79 81 82 83 85 86 88 88
98 99 92 99 95 94 81 68 66 77 72 72 81 81 81 80 82 67 49 38 35 32 33 35 36 34 33 35 34 34 56 62 61 55 71 79 79 79 81 83 84 85 86
93 92 99 97 100 93 81 78 85 79 69 64 63 72 76 74 67 53 42 39 37 35 35 36 37 32 34 35 35 35 51 63 62 55 63 78 79 79 81 83 84 84 83
99 96 88 97 98 89 79 86 89 78 69 63 57 51 51 57 53 43 39 40 39 38 38 38 36 33 33 35 35 33 46 48 46 47 72 80 81 79 83 85 84 84 82
100 100 100 89 89 78 75 74 90 83 72 64 51 40 44 42 44 39 42 42 41 40 40 38 37 38 43 40 35 31 45 41 41 33 56 81 84 83 86 86 84 83 82
100 100 99 93 93 89 88 74 76 73 63 56 49 44 50 50 38 41 44 44 43 41 40 40 43 50 47 41 35 32 40 41 40 42 59 79 87 87 89 87 84 82 85
100 100 100 85 71 59 68 69 71 60 60 63 56 59 57 54 49 44 47 47 45 42 41 46 54 49 43 33 31 32 38 43 47 38 36 54 86 89 90 89 86 82 80
100 100 100 92 82 86 73 77 72 64 68 65 62 57 59 53 49 52 49 48 45 45 45 52 54 43 44 41 37 31 30 38 50 47 40 27 40 91 90 90 85 83 78
100 97 99 88 80 80 82 73 70 59 58 53 57 42 55 58 50 51 58 56 50 52 51 55 47 46 46 39 36 33 34 34 40 47 45 40 36 85 93 93 87 82 78
100 100 100 90 82 79 70 71 62 44 42 49 54 45 54 57 62 65 70 62 56 56 53 53 47 46 44 42 36 31 32 35 37 40 49 41 38 57 76 90 88 83 76
100 93 96 83 79 75 73 70 56 44 44 49 48 53 54 61 60 59 60 57 55 53 55 52 46 43 40 37 34 33 36 34 35 39 45 51 46 57 71 66 68 69 72
99 97 88 79 73 70 76 72 68 64 52 49 38 48 51 55 56 57 57 58 56 54 51 49 45 43 41 38 34 33 34 35 36 38 43 45 55 45 46 46 43 38 35
94 94 85 84 82 81 84 74 64 63 53 47 52 49 49 57 64 61 59 62 56 54 54 52 46 47 42 37 35 36 35 36 39 39 36 37 41 47 42 40 40 41 41
86 90 89 89 82 80 70 70 68 71 64 51 52 58 60 62 61 67 61 67 58 56 55 52 48 45 40 40 37 37 37 38 40 40 39 39 39 41 42 44 43 42 43
70 71 78 74 70 73 64 59 57 54 57 48 48 50 58 64 63 66 64 68 60 59 56 54 50 45 42 38 36 51 69 58 46 44 42 42 40 39 40 40 42 42 42
65 60 58 60 65 60 59 53 50 62 67 51 52 50 58 66 68 65 70 68 63 61 58 58 52 48 44 42 38 50 71 79 58 48 50 45 41 40 40 42 44 43 42
68 66 65 65 74 68 61 69 75 77 66 54 52 53 61 63 60 61 74 69 69 64 62 61 52 49 45 46 48 50 53 54 67 68 52 51 44 40 40 41 45 43 42
67 70 74 73 72 68 68 72 76 70 64 55 49 49 56 61 64 70 77 71 70 67 64 62 56 51 49 58 68 60 62 69 68 70 69 48 48 46 42 42 44 46 44
70 68 70 71 73 68 69 70 72 66 60 48 45 62 60 62 69 71 76 74 71 70 67 61 64 69 64 76 72 70 75 82 83 79 74 59 53 47 47 47 48 48 46

GFSSE_925_rhum_042.txt.gz
RH
100 89 79 72 63 61 46 41 39 35 38 48 54 57 84 87 74 72 75 76 81 77 74 81 80 83 83 82 81 78 70 71 83 84 85 85 86 91 98 97 95 98 98
92 85 81 84 86 65 46 41 35 31 35 40 43 62 88 80 69 60 63 73 75 73 79 83 86 86 87 88 80 70 71 75 77 82 87 85 81 85 88 90 87 87 89
96 92 75 85 90 64 48 40 36 39 42 43 44 68 83 73 55 58 61 62 62 66 77 82 86 89 90 92 88 89 78 76 85 88 83 81 84 84 88 84 84 85 86
86 83 70 87 97 60 55 50 43 41 48 54 58 70 83 66 55 55 51 48 53 62 72 79 83 73 54 52 63 68 70 68 64 76 86 84 81 89 87 91 90 88 84
74 73 85 64 85 90 79 46 62 76 81 73 70 86 86 65 54 49 45 46 51 60 74 77 53 44 44 50 64 70 67 64 60 74 81 80 78 84 90 96 94 94 87
71 65 86 61 90 82 73 74 78 86 74 76 82 85 84 55 54 52 45 43 45 61 54 47 42 40 48 51 60 59 54 46 48 69 78 81 82 83 85 88 87 82 83
92 78 91 94 94 82 81 74 76 78 75 82 87 87 79 60 59 57 47 39 33 29 34 37 37 39 55 62 60 56 48 37 35 71 81 82 82 82 83 85 86 86 87
96 92 84 90 94 93 81 71 59 80 80 82 81 87 70 62 65 54 37 32 32 34 35 33 32 38 52 60 58 58 52 39 38 60 80 83 83 82 83 84 86 87 86
92 89 92 82 63 97 85 81 63 75 76 80 79 84 83 66 58 42 31 31 34 36 37 29 28 36 38 40 57 60 56 50 44 60 78 81 82 82 82 84 85 85 84
95 97 95 100 100 80 82 88 61 67 80 88 80 78 77 62 50 37 33 32 35 37 36 30 34 35 36 37 48 58 58 53 51 62 76 80 81 80 79 82 82 81 81
100 92 98 98 97 85 92 62 65 69 78 83 80 82 78 63 48 38 37 35 36 38 36 31 34 34 35 36 49 55 54 49 53 56 73 79 80 78 79 82 83 80 80
100 100 92 61 96 97 86 86 77 74 80 84 82 76 67 52 42 39 39 41 41 39 37 35 36 38 36 36 38 50 46 47 41 64 75 80 82 81 83 84 82 81 81
100 100 98 97 92 78 77 75 72 67 64 66 63 57 53 45 42 42 42 41 40 39 39 40 44 44 39 36 33 42 42 43 45 45 52 75 85 88 89 85 83 82 81
100 100 100 100 97 94 87 75 72 65 50 45 46 41 40 40 42 44 43 42 42 40 41 48 50 45 41 36 33 40 44 44 43 39 51 70 82 91 89 87 81 82 84
100 100 100 100 94 89 79 80 68 60 52 44 49 45 40 38 42 43 44 44 42 41 46 52 52 43 40 34 33 34 38 42 45 40 41 68 84 89 92 89 86 83 85
100 100 99 92 88 86 72 70 65 68 60 54 60 56 50 44 43 44 46 47 44 43 46 53 50 44 40 36 32 33 35 37 40 46 36 37 54 86 93 93 87 82 80
99 99 100 88 79 63 68 66 67 69 71 64 63 60 52 49 46 47 52 50 47 48 51 55 47 46 45 39 32 32 33 34 38 43 47 42 38 54 79 91 89 86 80
100 100 100 86 89 80 74 71 66 58 58 51 59 62 63 64 62 61 63 59 53 57 55 55 48 47 47 41 35 33 33 34 36 37 39 42 44 53 72 75 79 79 76
100 99 98 99 91 78 80 65 55 51 46 38 36 36 55 58 62 60 61 61 61 58 57 54 53 45 42 40 36 34 35 34 35 37 38 39 45 53 62 69 54 55 54
99 99 96 95 90 79 77 74 53 52 48 40 38 42 53 58 59 57 59 59 59 57 54 52 46 45 43 40 38 34 34 35 37 39 38 39 41 47 43 46 44 38 38
97 96 88 87 86 79 77 77 79 62 45 44 41 36 43 52 57 59 60 58 61 58 54 51 51 46 46 43 38 41 39 38 39 39 41 41 42 40 41 42 39 40 41
96 97 94 91 80 79 79 81 76 62 55 48 44 42 50 55 54 65 66 65 62 60 55 55 54 49 46 43 40 49 66 55 45 44 40 39 40 42 44 41 42 42 42
93 93 96 93 86 79 80 79 74 69 60 56 46 48 54 54 65 65 67 66 64 65 58 57 55 49 47 42 38 42 81 80 64 52 48 45 43 41 42 42 43 43 44
85 84 83 86 85 84 78 69 66 65 65 65 66 61 49 51 59 64 67 68 68 66 60 59 57 53 50 45 46 48 49 54 69 67 52 50 52 45 42 42 41 42 43
73 74 75 79 75 72 72 65 62 60 58 61 67 54 48 48 50 65 69 64 69 70 64 64 64 60 52 48 63 58 56 59 58 71 79 58 52 52 46 42 41 43 46
68 64 63 63 63 70 68 68 63 62 69 76 72 62 57 46 53 60 67 61 67 76 73 72 70 61 52 53 66 48 56 68 80 80 83 72 64 61 51 47 45 44 47

GFSSE_925_rhum_045.txt.gz
RH
97 69 67 69 57 50 51 52 38 47 66 66 57 61 63 64 68 67 73 77 76 81 82 84 84 82 82 86 90 93 92 84 82 85 86 88 94 92 98 94 91 94 97
96 79 79 65 61 69 66 48 32 39 48 52 68 68 74 70 73 77 72 74 83 83 85 86 87 88 89 91 92 90 84 83 87 84 81 82 84 88 92 86 90 97 97
96 69 56 50 55 64 75 64 37 40 81 83 87 86 85 76 80 76 74 84 85 86 86 87 88 91 94 77 76 89 89 74 79 83 83 79 78 78 83 84 84 82 77
98 88 76 64 62 63 62 88 80 29 72 85 87 89 76 74 69 64 74 85 87 87 87 86 87 91 89 88 76 74 83 84 84 82 81 81 81 91 87 86 88 84 83
100 89 82 74 68 72 80 79 76 74 80 88 89 90 76 66 58 56 70 82 84 86 82 74 63 50 64 74 72 64 63 71 78 78 80 80 80 85 90 91 88 82 82
100 98 95 80 64 70 67 84 70 69 83 90 89 80 68 52 44 48 62 77 84 82 73 60 46 64 69 71 67 55 56 64 68 73 79 80 81 81 82 83 86 84 87
81 84 84 85 74 70 89 80 86 34 82 88 87 82 58 43 44 49 64 78 78 69 54 48 57 65 66 59 43 42 42 56 70 82 83 82 82 81 82 85 84 84 85
90 73 80 84 81 94 93 81 88 65 79 90 87 77 57 43 42 44 48 52 43 37 41 52 61 62 60 54 50 37 42 42 65 80 81 82 84 81 81 84 84 84 84
98 91 87 88 97 87 81 87 76 73 79 87 82 77 64 49 40 34 30 34 34 34 39 42 59 61 58 57 52 47 46 47 60 81 82 83 83 82 81 83 83 84 83
98 98 100 98 100 90 84 84 67 61 77 84 79 79 58 41 33 34 36 37 33 33 38 38 37 37 50 58 55 53 48 54 61 76 81 81 81 80 79 81 81 82 82
100 99 98 95 100 91 89 69 76 68 80 83 78 72 62 45 35 35 37 37 33 30 36 39 36 36 45 55 55 51 48 54 60 73 79 78 80 84 80 80 81 82 82
100 100 93 95 98 100 89 78 72 74 69 68 79 67 50 39 34 34 37 37 32 30 32 36 38 36 44 53 58 49 50 55 56 70 78 79 84 83 86 84 80 78 80
99 92 99 85 80 91 97 82 81 71 64 67 78 57 48 40 38 37 38 39 37 34 34 35 40 37 36 41 50 46 49 55 54 62 76 79 84 82 86 87 81 80 81
100 99 99 100 99 86 80 79 79 74 60 70 78 57 42 41 41 42 41 39 38 37 40 44 42 39 36 38 41 44 47 47 46 48 61 75 84 91 88 87 85 83 83
100 100 94 97 99 100 96 96 74 78 66 65 74 50 40 42 44 43 42 41 40 42 46 49 45 41 35 37 41 40 43 43 42 41 47 69 83 88 91 87 84 85 84
100 100 99 98 96 98 97 97 81 77 69 74 57 47 40 41 43 44 43 42 41 42 50 51 47 39 35 34 36 36 35 37 37 40 37 65 80 80 93 91 88 83 82
99 100 100 98 99 94 97 84 66 55 57 56 45 41 42 41 42 44 45 44 43 44 51 54 46 43 37 35 33 34 32 33 33 36 42 41 68 83 86 91 90 83 83
98 99 100 100 90 87 89 81 70 58 46 52 52 45 43 41 43 46 48 47 46 46 50 56 47 46 43 36 33 34 33 34 35 37 42 43 52 62 70 81 86 88 83
99 96 100 98 98 96 89 80 73 69 59 67 64 58 52 49 48 50 55 52 49 51 53 56 51 47 48 42 35 33 33 34 34 36 40 43 44 46 51 64 68 68 68
100 100 98 96 93 95 85 77 69 73 69 68 62 64 64 63 62 65 62 64 57 56 58 57 55 51 47 43 39 36 37 37 39 39 40 41 44 46 54 59 70 58 51
100 100 100 100 96 95 90 77 76 77 60 57 55 58 61 63 65 68 66 63 62 62 59 58 59 54 46 44 43 43 41 40 39 39 41 41 40 40 43 50 46 47 42
100 98 97 98 97 88 74 71 76 68 57 50 44 36 46 49 52 60 62 61 62 63 62 59 56 50 51 49 44 48 60 50 44 44 44 43 42 39 41 42 41 42 39
100 99 96 94 95 89 84 84 78 75 62 49 45 44 46 43 43 53 59 61 63 64 64 58 53 50 52 52 44 43 82 73 64 52 50 46 44 46 44 44 45 40 40
97 95 93 91 90 88 84 80 78 71 65 60 49 42 39 41 42 53 63 64 68 69 66 62 56 56 54 48 47 43 46 47 69 64 52 52 48 45 44 45 50 44 43
94 93 94 92 86 79 79 79 77 73 68 58 54 52 51 45 43 52 57 68 70 72 70 68 64 63 61 52 46 49 54 58 56 67 77 62 56 53 54 51 46 45 44
90 91 89 92 92 86 82 77 76 74 70 68 63 61 58 49 46 51 52 56 61 69 71 71 72 68 68 62 53 49 52 63 70 68 83 73 61 56 57 62 60 55 47

GFSSE_925_rhum_048.txt.gz
RH
76 57 61 53 56 50 53 60 64 64 73 74 71 73 71 73 87 88 86 84 83 82 84 84 84 84 86 88 88 89 90 83 86 86 81 85 94 97 97 98 95 98 99
85 67 64 65 63 50 46 53 56 54 72 77 78 83 81 83 83 81 78 83 84 83 83 83 83 85 87 90 93 94 90 82 82 84 84 90 89 91 96 97 96 99 96
92 75 82 70 65 55 45 64 51 69 74 90 89 86 86 79 78 80 88 89 86 85 85 86 88 90 91 93 89 91 83 82 83 78 75 76 77 81 84 82 86 87 91
96 85 79 72 70 64 62 78 56 68 90 82 83 86 81 81 86 91 89 86 85 85 85 88 93 95 93 92 89 91 80 83 80 77 76 76 80 90 87 87 86 84 87
96 76 72 67 68 63 79 80 68 66 58 74 82 84 84 88 91 88 85 85 84 87 87 89 94 95 73 69 79 82 82 81 79 78 77 75 79 86 83 80 84 83 86
100 82 78 73 64 63 63 74 78 82 81 78 84 81 85 90 91 88 86 85 85 79 75 81 86 78 68 54 58 70 72 75 77 79 82 80 79 79 81 85 85 85 85
100 94 90 75 63 61 59 69 72 82 84 77 82 81 87 88 91 90 88 84 71 63 75 88 70 68 55 47 49 58 60 69 74 81 81 82 80 85 83 87 88 88 86
98 99 86 80 73 66 64 61 49 75 91 44 78 86 88 87 89 92 85 63 46 47 51 64 68 58 46 37 44 47 58 73 79 82 80 82 82 80 80 81 83 81 82
89 99 87 86 82 79 77 74 51 69 85 76 80 85 86 86 87 82 61 43 49 61 63 64 59 51 46 43 45 48 58 68 76 82 82 82 83 79 79 82 82 82 83
99 95 83 90 100 91 80 60 53 64 61 63 78 82 82 69 70 54 40 44 56 63 63 61 58 56 50 49 46 48 54 68 77 80 80 82 80 78 81 82 82 83 83
100 100 100 100 99 90 72 58 78 73 73 70 80 80 61 53 43 38 37 39 38 42 49 56 57 58 54 52 47 44 51 68 78 81 80 80 79 81 83 84 84 84 83
99 100 100 100 100 98 89 70 65 53 62 78 75 66 48 37 38 36 37 37 37 36 36 39 48 54 55 53 50 46 52 67 76 80 79 82 85 82 81 80 80 80 81
100 100 99 100 99 100 100 76 83 88 75 63 60 57 41 37 38 37 36 38 38 38 37 41 46 50 51 49 49 50 58 67 76 80 80 80 85 85 82 80 81 81 80
100 100 100 99 96 98 98 98 67 63 65 64 58 50 40 37 38 38 35 36 36 40 39 36 39 39 47 50 46 49 56 61 63 75 81 83 84 90 86 84 84 80 82
99 100 100 96 96 90 91 99 95 90 83 62 55 44 39 39 39 39 37 35 37 41 42 39 38 37 41 49 47 46 52 50 53 56 70 81 86 89 90 87 88 85 85
99 100 100 100 98 99 100 97 96 82 67 49 67 50 43 40 41 40 39 38 40 46 43 41 42 37 38 43 46 45 43 47 45 44 48 66 79 83 93 89 88 87 86
100 100 100 100 100 99 100 98 97 90 86 77 69 55 46 43 44 42 40 40 43 48 48 48 42 35 35 42 39 40 40 40 40 38 40 50 69 80 86 91 89 85 86
100 100 100 100 99 100 92 91 94 93 73 84 61 60 48 45 44 43 43 42 43 51 52 52 43 40 35 34 36 35 39 40 38 39 41 40 52 73 87 89 90 87 87
98 98 100 100 100 100 98 97 93 92 85 68 63 62 52 48 47 45 45 45 44 47 54 54 47 42 39 36 34 34 36 36 38 38 39 40 41 61 68 84 89 86 79
99 100 100 100 96 98 100 99 86 75 69 53 65 59 55 50 48 47 49 48 46 47 51 58 52 48 46 42 38 36 36 38 38 37 38 41 42 44 49 60 76 77 70
100 100 100 100 100 93 93 93 80 77 75 54 55 68 54 51 53 52 60 60 51 53 56 58 60 54 52 50 44 44 41 39 38 36 38 39 41 46 51 54 59 64 62
99 100 100 99 99 100 95 95 84 78 75 65 72 78 63 65 64 67 60 69 73 70 64 63 61 60 58 52 46 49 59 48 43 41 40 39 43 48 56 60 63 58 51
100 100 99 98 96 98 93 93 80 71 70 65 64 59 63 62 58 60 61 65 66 67 65 63 63 64 61 53 47 45 74 66 59 45 41 41 42 45 46 50 52 50 47
98 97 97 98 94 87 88 83 77 74 70 66 60 53 51 51 49 47 51 57 61 64 68 65 65 63 59 53 55 46 49 49 68 66 55 49 47 46 44 44 44 45 46
100 100 94 96 97 93 86 79 75 74 70 63 63 52 46 44 44 42 45 49 56 66 67 69 70 68 59 54 54 54 52 57 56 60 67 64 57 52 50 45 45 46 46
100 100 100 96 94 93 87 78 70 74 72 70 66 59 48 43 42 39 41 44 50 58 70 72 74 76 74 65 64 59 55 59 65 65 74 69 63 58 54 53 54 54 59

GFSSE_925_rhum_051.txt.gz
RH
86 79 64 52 50 72 49 79 74 70 58 60 58 80 82 79 80 82 86 87 87 86 92 87 86 92 83 86 94 96 90 82 83 88 89 95 97 99 98 95 96 97 98
80 80 80 67 62 56 65 92 85 78 75 76 64 74 80 86 83 88 86 87 87 86 85 84 86 82 86 89 92 80 81 83 81 81 89 95 95 97 97 95 95 98 98
75 92 70 58 55 61 80 80 83 79 82 78 79 75 84 89 91 86 83 83 83 83 82 83 83 84 90 95 86 80 76 74 75 78 74 73 83 87 88 85 90 92 95
90 98 92 59 53 68 79 85 86 92 88 81 78 83 87 90 88 86 84 84 82 81 82 82 84 88 94 93 80 78 78 75 77 79 68 67 75 87 90 88 89 91 90
97 94 94 68 53 61 74 87 86 90 89 90 88 75 87 86 85 83 84 83 81 78 87 85 90 93 93 78 81 81 77 76 78 72 76 80 75 80 86 84 86 89 89
97 95 95 87 61 56 65 85 91 87 83 80 81 79 84 84 85 80 82 82 81 92 94 91 94 88 75 78 82 80 78 75 71 68 76 73 76 84 85 88 88 88 90
100 98 93 82 69 67 82 84 91 89 78 64 82 86 84 85 79 79 83 86 84 88 93 94 74 63 65 71 74 75 74 77 72 71 70 72 77 86 87 92 91 90 80
100 96 84 74 68 73 74 76 82 76 75 87 81 83 82 85 82 82 84 80 78 84 90 71 54 48 51 57 59 63 67 75 71 71 70 79 86 83 82 83 83 82 83
97 98 88 80 68 62 56 66 67 79 75 84 81 77 85 84 84 87 78 66 72 79 67 62 46 40 44 45 55 61 67 78 71 73 69 71 82 81 82 83 84 84 85
97 97 100 91 78 68 66 65 71 68 74 78 81 79 83 90 87 78 54 58 61 65 67 51 43 44 44 48 54 64 67 76 74 74 70 74 82 81 82 84 84 85 86
99 92 95 99 99 79 72 77 65 68 69 79 84 80 89 92 81 57 69 53 57 65 58 52 47 48 48 49 54 66 76 77 76 74 71 80 82 82 84 85 86 86 86
100 99 92 100 99 91 88 90 68 70 73 78 91 83 91 80 64 64 52 56 60 60 58 56 51 52 66 75 70 67 75 79 77 75 74 81 83 83 85 86 85 85 84
100 100 100 98 96 97 97 79 80 76 75 82 93 86 75 56 46 43 53 70 67 64 81 71 60 74 74 72 70 73 81 81 78 76 78 79 82 81 83 83 82 82 82
100 100 100 99 99 100 98 88 87 86 87 86 83 64 49 48 56 42 41 42 43 59 73 68 70 55 50 47 45 54 79 78 78 78 78 81 84 81 82 81 82 82 82
100 99 100 100 100 100 99 98 85 87 87 77 65 53 46 52 48 45 40 38 38 39 44 48 55 52 50 46 49 52 71 83 87 81 78 84 85 87 85 83 82 84 82
100 99 99 100 100 99 100 93 91 80 80 84 62 44 39 42 38 38 40 40 38 36 40 44 46 49 55 47 49 58 57 67 78 84 82 86 84 88 92 90 89 88 84
100 100 99 99 100 99 100 100 96 94 79 80 67 39 40 41 40 36 37 42 42 42 38 39 40 40 45 57 62 56 54 52 51 54 72 83 84 86 90 91 91 93 88
100 100 98 95 98 93 100 98 96 87 79 84 74 62 58 38 41 39 38 38 45 45 45 42 37 39 48 54 49 49 44 40 41 41 49 72 77 75 86 89 88 87 90
99 99 100 99 93 94 94 100 100 94 88 77 71 74 61 43 44 41 40 41 47 50 50 45 39 34 37 43 42 42 39 48 37 39 43 46 54 64 82 86 90 88 84
100 100 100 100 100 100 98 90 98 97 88 78 62 76 66 50 47 44 44 42 44 53 55 50 46 39 38 38 42 42 41 38 40 41 42 42 46 57 65 84 87 84 86
100 100 100 100 100 100 100 100 97 97 92 86 73 84 68 56 51 49 46 46 45 48 55 57 53 47 45 41 50 51 51 40 43 44 40 42 42 44 48 54 77 77 82
99 100 100 100 100 100 99 100 96 94 84 85 86 73 67 56 54 53 52 51 49 52 51 57 60 63 63 52 50 51 47 49 45 39 39 41 49 48 65 47 64 60 71
99 100 100 100 99 100 99 98 98 87 81 81 70 64 61 57 55 52 55 57 64 57 56 59 63 62 64 61 52 50 53 53 48 54 49 40 39 51 58 55 51 58 61
89 95 97 100 100 100 97 98 96 82 77 67 60 58 64 72 68 63 65 59 65 65 68 70 69 67 69 66 66 52 52 57 51 57 60 58 50 47 41 43 57 56 60
86 91 94 97 99 100 96 92 90 81 70 70 59 48 47 66 62 62 59 58 57 56 66 69 69 71 68 72 70 68 64 67 57 71 70 62 54 57 48 47 44 51 58
86 94 94 92 95 94 98 90 88 78 68 65 64 57 61 57 55 56 54 51 46 47 57 69 71 78 77 74 72 74 66 64 71 69 77 66 60 58 49 49 51 50 47

GFSSE_925_rhum_054.txt.gz
RH
66 68 70 75 59 60 60 60 62 82 63 68 86 69 62 68 84 80 74 83 85 86 91 91 89 90 96 96 98 97 88 88 87 86 90 95 98 97 93 90 89 95 98
70 66 85 95 99 80 50 32 66 66 86 92 84 80 61 59 79 82 85 86 85 89 91 90 86 82 96 97 96 93 87 89 90 88 88 96 99 98 99 93 92 96 98
72 76 88 85 80 81 74 80 70 86 89 93 84 82 80 76 83 88 87 87 87 89 89 81 82 86 94 97 84 81 80 79 75 72 76 84 88 94 97 96 95 93 93
72 78 76 75 68 93 90 95 84 90 91 91 84 83 84 83 86 89 86 81 78 81 83 81 85 84 92 81 79 77 75 66 60 56 52 64 87 93 94 94 93 90 90
74 70 69 69 68 80 99 95 92 94 93 89 84 89 89 85 82 85 81 78 79 80 80 81 88 95 90 74 72 66 72 71 61 54 60 63 69 87 87 88 89 91 88
94 72 72 76 72 70 99 95 93 93 90 86 86 89 89 87 82 80 75 77 81 81 79 87 94 94 82 78 76 74 69 63 56 54 58 66 68 83 84 89 84 87 85
98 84 83 76 63 59 72 95 94 90 88 86 85 82 87 86 78 77 79 79 82 86 87 92 95 79 78 77 75 73 62 57 50 52 58 66 80 85 85 88 84 88 86
95 95 88 87 63 61 68 78 95 88 78 86 82 80 86 88 76 77 82 82 90 85 84 89 82 71 73 77 76 70 62 55 49 52 59 67 82 84 85 82 85 84 85
96 99 96 86 80 60 65 75 86 87 76 76 84 86 83 82 78 82 86 88 86 82 63 55 54 60 64 68 68 61 63 56 51 54 57 66 83 82 83 84 84 86 86
98 100 98 87 83 85 80 82 83 80 71 66 78 66 80 82 84 84 80 75 78 80 51 42 47 44 48 60 62 68 66 59 52 52 55 71 82 81 83 84 85 85 85
98 99 98 97 83 74 69 77 78 72 72 72 79 77 79 89 85 74 72 71 79 62 46 44 44 48 56 64 64 62 61 53 53 51 62 80 82 81 83 85 86 86 87
98 99 99 89 87 92 79 82 84 89 94 83 77 68 88 88 78 65 86 68 70 59 50 47 48 50 62 64 68 67 54 57 54 56 67 80 80 81 83 85 86 86 86
92 98 99 100 99 88 84 85 83 100 78 75 85 73 81 80 67 81 89 89 86 68 67 64 69 58 53 53 59 54 62 59 56 58 74 80 87 85 83 85 85 84 84
99 99 100 100 99 97 99 100 99 100 80 92 82 77 86 72 70 70 71 71 72 67 67 66 60 56 56 52 55 62 63 57 57 60 76 79 83 86 83 83 83 83 82
100 100 99 100 100 100 100 100 100 100 76 88 86 78 79 71 62 59 60 62 60 60 63 60 58 61 56 54 58 62 63 61 63 58 70 76 79 84 84 82 82 82 82
99 99 100 100 100 100 100 100 99 98 89 94 82 74 69 64 63 55 54 50 53 59 60 55 54 53 49 50 57 58 61 63 64 62 63 79 81 84 86 86 85 82 82
90 99 99 99 100 99 99 99 100 100 93 88 72 71 65 67 60 57 46 43 46 48 50 48 53 47 46 48 54 58 59 62 61 65 63 65 78 87 88 87 90 88 85
100 99 98 100 99 99 100 99 99 97 93 97 92 83 74 55 52 51 46 44 44 47 47 49 51 49 46 45 49 51 52 54 59 62 62 62 65 70 88 91 90 91 90
99 99 99 99 99 99 100 98 96 93 94 94 78 73 49 47 46 49 47 50 56 49 45 46 46 44 44 43 44 45 46 45 50 50 56 64 65 62 63 82 90 87 88
96 100 100 100 100 100 100 96 97 93 96 91 76 80 74 63 64 55 48 54 57 51 52 52 46 45 41 39 34 41 44 44 45 46 49 52 56 66 65 66 84 83 87
91 100 100 100 99 98 100 100 100 100 85 70 65 84 87 65 66 57 49 60 56 54 53 60 55 51 45 43 38 41 45 49 51 46 47 49 54 62 65 69 68 64 78
82 96 100 100 99 99 100 100 100 100 90 84 77 85 85 76 66 62 54 57 55 54 63 67 64 58 50 50 43 42 43 43 47 50 46 49 51 54 56 68 63 61 59
77 89 100 100 100 100 99 100 100 100 97 90 81 78 80 80 64 61 64 59 60 57 62 72 71 64 56 60 53 48 48 49 39 45 51 48 50 56 57 54 61 61 63
67 78 94 100 100 100 100 100 100 97 96 90 81 72 69 77 73 64 66 69 70 65 61 66 70 69 66 56 60 57 55 51 45 48 48 51 52 59 55 53 53 62 64
63 73 80 97 100 100 100 100 96 93 89 86 81 79 78 78 73 67 68 74 75 76 76 76 75 79 70 70 60 57 59 58 59 56 54 53 66 64 57 56 56 54 67
60 67 77 86 95 100 100 99 93 89 79 77 84 82 87 78 80 77 75 83 73 81 78 76 80 85 82 76 72 66 64 58 57 58 55 56 61 70 71 72 57 63 66

GFSSE_925_rhum_060.txt.gz
RH
76 75 58 66 91 88 96 72 66 62 63 64 62 57 60 63 65 64 60 61 71 87 94 93 92 95 97 98 97 79 78 80 82 90 93 95 98 98 95 90 93 93 92
66 81 60 56 89 89 96 78 69 66 70 65 67 70 77 70 73 68 73 86 89 93 97 97 96 98 100 95 77 71 72 77 86 91 93 98 98 100 99 95 98 99 100
59 76 65 65 87 92 91 91 76 64 68 65 64 76 80 78 76 83 87 88 88 91 96 96 98 99 99 75 74 76 77 82 86 86 85 94 96 98 100 97 94 90 88
54 70 78 81 93 95 90 88 86 87 88 86 77 73 73 74 78 85 88 86 86 90 95 96 97 100 92 76 74 70 68 72 71 79 86 88 92 97 97 91 93 91 92
62 67 67 70 91 98 94 87 85 85 87 85 81 81 70 75 82 86 86 87 85 88 90 94 98 94 80 72 62 63 63 64 64 71 78 87 92 95 91 87 88 88 89
69 63 66 66 78 92 96 88 87 86 82 83 78 81 71 80 85 89 85 85 80 83 87 94 99 78 72 60 55 57 58 61 66 70 79 86 90 97 90 91 91 90 88
71 75 68 66 68 76 83 85 88 91 88 81 71 84 78 84 90 85 84 81 83 86 91 95 87 76 69 55 56 53 54 55 56 65 76 80 82 87 86 88 90 90 90
72 79 82 71 68 65 67 74 80 83 87 80 78 80 89 86 83 79 80 82 86 87 85 91 72 68 64 54 55 51 49 51 57 68 79 82 84 85 85 87 88 87 87
75 82 88 85 76 68 62 71 82 94 94 93 82 86 84 85 79 73 78 79 80 88 82 70 66 62 61 56 50 49 49 52 60 68 80 84 85 83 84 85 86 87 88
72 85 94 94 88 82 70 82 91 79 72 86 80 83 82 80 72 76 85 80 79 82 73 71 72 69 60 54 50 48 46 51 54 65 79 82 83 82 83 85 87 88 88
61 94 92 94 93 87 81 85 92 82 72 97 78 83 78 73 76 85 84 76 70 74 71 74 68 68 61 45 49 46 47 47 61 68 76 80 83 83 84 86 88 88 88
68 84 95 93 94 92 90 92 93 83 72 96 77 77 87 82 88 75 84 74 69 66 71 69 68 67 50 50 50 51 48 52 60 70 75 78 83 83 85 87 88 88 88
70 83 97 94 96 95 92 89 89 84 94 99 88 83 84 86 86 83 88 70 70 66 64 58 51 50 44 54 54 54 49 54 63 74 78 77 83 83 85 87 88 89 88
70 78 97 99 95 92 93 95 91 89 90 94 89 81 72 73 82 83 89 68 72 70 55 37 48 56 47 56 58 53 49 57 63 68 76 79 80 84 84 86 87 88 88
72 87 98 100 94 91 84 95 99 89 83 86 81 82 79 76 77 70 87 73 72 62 63 42 57 51 50 50 58 50 54 58 60 68 80 76 80 84 84 84 86 87 86
84 99 97 100 98 93 96 94 100 100 100 86 77 73 74 78 76 70 86 77 68 61 60 55 58 50 51 53 57 56 53 55 59 66 76 78 76 78 84 84 85 86 86
87 98 99 100 100 95 95 95 99 100 94 86 77 67 71 74 73 73 79 65 65 61 60 52 51 50 49 53 57 56 54 55 57 67 64 74 79 77 79 80 85 86 85
92 97 96 96 99 100 99 99 95 100 97 96 84 76 84 82 71 69 76 70 58 58 56 54 48 47 46 51 55 56 56 56 59 60 67 65 69 77 82 82 83 85 87
81 96 98 99 99 99 100 100 100 100 100 100 89 78 81 70 72 66 62 60 55 56 52 50 46 43 44 48 52 53 53 55 56 59 66 69 67 69 73 81 83 83 80
87 87 93 95 96 100 100 99 99 100 100 100 92 80 72 76 65 78 55 53 48 52 48 46 45 42 42 43 47 49 48 49 54 54 55 59 68 72 72 70 79 85 84
89 88 94 95 97 99 100 100 100 100 100 100 90 81 81 69 61 50 46 44 43 46 44 46 46 44 44 40 40 45 44 43 46 47 49 53 56 58 69 77 77 75 85
90 88 93 96 96 99 99 99 100 100 100 98 94 81 70 67 60 53 48 47 43 48 44 45 44 46 44 41 41 41 61 48 42 44 44 44 48 51 57 62 74 73 80
73 91 98 98 96 99 99 96 100 99 98 95 91 78 68 63 63 58 51 47 46 53 46 48 46 47 45 40 38 38 59 64 49 46 45 46 46 47 50 56 61 72 73
64 90 96 99 99 99 98 99 99 97 96 83 89 78 71 66 60 53 59 52 42 52 56 58 53 55 51 46 40 38 49 60 74 76 54 49 50 48 47 49 54 58 61
58 78 92 98 100 98 97 96 95 95 89 77 91 92 78 67 71 65 59 65 50 40 56 63 64 60 62 62 54 51 46 55 59 70 80 61 54 52 51 52 53 52 55
56 76 90 99 96 98 96 96 93 89 87 75 84 80 78 75 76 72 58 58 64 63 52 62 65 67 67 68 64 60 57 60 63 65 80 69 64 56 53 53 53 54 51

GFSSE_925_rhum_063.txt.gz
RH
90 81 92 72 55 57 59 58 57 54 58 56 56 59 61 64 67 60 50 49 48 63 89 95 94 95 100 98 84 83 90 91 90 90 91 94 100 100 95 94 96 96 93
70 68 84 89 67 58 64 62 62 67 65 58 54 56 63 63 60 53 48 57 73 83 90 93 90 94 99 97 79 82 87 90 91 89 92 96 98 97 89 88 84 92 96
71 65 63 85 85 78 81 81 74 72 68 62 60 56 60 62 57 62 79 84 86 91 94 92 91 99 99 77 77 81 84 87 86 84 87 89 94 97 98 94 94 97 88
63 67 58 73 92 88 92 85 88 87 84 80 76 64 64 64 66 83 86 85 89 92 96 93 96 99 82 75 76 78 80 81 81 82 88 94 97 98 96 96 94 93 92
69 71 65 63 92 94 88 86 85 85 85 80 74 70 72 71 73 81 87 88 87 92 94 97 98 82 71 67 72 74 77 75 75 74 83 88 94 97 92 90 87 87 87
63 75 69 63 73 93 92 84 82 87 84 82 73 72 75 82 82 83 84 85 85 92 97 98 88 71 65 61 65 76 76 80 76 75 88 89 89 89 87 86 84 86 87
58 69 76 68 66 78 94 88 84 82 81 78 74 75 80 86 85 83 84 83 84 87 95 95 75 66 61 66 70 72 67 79 74 76 75 77 83 88 88 88 87 93 91
71 79 82 78 72 68 76 85 90 88 77 76 78 72 72 81 84 82 82 80 85 88 91 87 72 58 56 61 60 57 68 71 73 75 78 79 87 86 84 89 89 89 88
73 76 88 82 77 75 70 74 80 84 96 99 94 78 82 74 85 79 82 85 80 84 83 75 68 55 58 58 51 60 66 64 66 73 79 81 83 84 85 87 87 88 88
73 78 80 88 86 79 79 80 86 83 99 82 88 97 75 82 82 80 84 85 83 78 78 76 66 56 56 49 54 62 60 65 68 73 80 80 84 83 84 86 87 89 89
75 68 79 81 91 92 87 90 86 82 86 78 77 84 82 84 80 80 74 80 82 75 67 63 58 55 51 48 55 62 66 64 66 69 78 80 83 83 85 88 90 90 90
74 77 79 94 98 94 88 91 89 86 91 84 78 80 86 83 85 84 80 83 78 64 67 64 61 53 49 49 51 58 64 66 68 67 77 80 83 84 87 89 90 91 91
74 84 84 96 96 92 100 94 89 86 78 65 96 98 79 87 92 87 86 81 70 78 75 63 58 41 49 49 49 62 66 64 65 72 75 79 85 85 86 89 90 90 91
76 83 90 95 94 95 100 100 93 87 84 91 90 93 78 94 92 87 82 74 72 60 59 62 53 36 50 50 56 65 65 62 60 70 78 80 83 85 86 88 89 90 89
84 82 89 94 96 89 99 100 88 99 95 98 95 85 76 83 94 92 80 66 52 54 49 41 36 43 52 57 53 65 62 59 60 67 77 77 82 86 85 87 89 89 86
92 94 94 92 99 94 99 99 99 100 100 98 85 80 72 82 86 85 72 54 52 42 33 51 48 43 51 54 56 60 59 60 61 64 73 79 80 83 86 87 88 88 86
81 96 91 96 94 92 93 99 97 97 99 98 100 85 70 71 78 82 71 55 54 38 38 57 60 49 49 56 55 63 61 61 62 61 72 76 77 79 83 86 88 89 89
82 93 96 99 98 94 96 99 100 96 95 90 88 77 69 72 65 77 78 54 60 45 44 57 62 54 53 56 58 59 61 61 61 60 59 69 72 72 77 79 81 85 89
79 80 93 97 99 95 99 96 98 99 96 88 82 76 65 67 70 69 80 54 66 54 52 52 53 50 54 56 57 56 58 64 62 65 62 60 63 65 71 77 77 77 77
80 78 89 98 99 99 96 97 97 99 99 86 74 66 66 62 69 81 72 55 68 62 62 56 50 47 51 55 55 56 56 59 64 66 67 64 63 63 64 65 74 80 79
82 91 88 94 97 96 100 100 100 100 100 100 94 85 78 67 80 75 70 66 62 68 60 52 48 45 49 53 54 53 54 54 55 55 62 67 69 67 68 67 69 74 80
84 91 92 93 96 98 97 99 99 98 100 99 100 88 94 80 66 65 63 63 63 64 59 47 47 49 47 50 52 57 65 55 56 53 52 57 66 68 71 72 71 72 74
90 90 92 91 93 95 100 99 100 100 100 100 100 96 81 72 62 59 58 67 63 60 59 47 46 46 45 45 43 47 72 69 55 44 49 47 48 55 62 67 64 67 75
90 86 90 86 90 95 97 100 99 98 97 97 95 87 77 70 61 56 61 60 58 50 46 45 44 46 53 45 47 40 37 48 79 77 51 46 47 46 46 51 63 63 65
89 86 78 88 92 96 93 96 97 94 89 91 89 79 72 69 64 56 52 48 44 44 45 50 45 44 46 45 44 40 42 48 60 77 84 65 52 50 48 48 53 57 58
91 88 86 96 100 100 99 93 95 93 88 87 90 86 81 68 61 54 48 50 44 44 54 62 51 51 47 52 55 41 40 47 62 72 84 74 64 52 49 51 50 49 49

GFSSE_925_rhum_069.txt.gz
RH
66 60 58 67 70 78 73 68 62 62 60 66 69 68 67 67 71 77 79 78 80 86 95 93 72 79 95 97 96 93 92 91 92 92 91 97 99 100 98 93 93 94 93
59 61 61 60 60 68 73 70 63 62 66 72 73 72 69 69 74 78 80 88 84 90 94 96 83 91 97 97 91 88 90 90 91 91 96 99 100 99 96 92 88 89 92
64 68 69 70 59 62 70 72 67 63 64 73 78 78 76 74 75 74 78 85 86 88 94 95 96 96 96 92 88 90 89 91 91 95 92 90 95 91 82 83 90 92 90
61 68 69 66 63 60 63 72 74 66 64 65 71 76 75 73 74 73 75 81 83 87 92 96 94 92 97 94 94 88 89 87 84 84 82 81 88 84 82 82 82 85 95
67 66 67 67 61 59 63 71 72 73 70 68 68 70 72 74 72 70 78 84 85 86 90 94 93 92 96 96 91 89 86 81 80 78 76 78 83 87 85 85 86 84 83
72 70 66 67 70 64 64 69 73 74 70 68 71 68 64 61 64 73 81 84 84 84 87 94 89 95 95 91 87 82 80 80 81 83 86 82 84 95 91 94 93 90 89
76 73 70 72 76 78 75 71 73 78 71 68 70 68 66 73 82 83 85 88 88 85 83 86 93 92 90 87 83 79 77 78 78 76 77 78 84 90 87 85 82 85 86
70 80 76 78 84 84 85 75 69 73 76 71 78 83 88 85 86 88 90 89 89 87 86 90 94 88 86 82 78 76 74 74 76 78 77 81 81 83 87 92 84 89 86
73 75 81 80 90 96 84 83 76 72 79 90 81 72 92 88 87 90 91 87 87 85 87 94 87 88 84 79 79 75 74 73 72 73 76 82 85 90 83 82 88 90 90
73 68 74 88 81 84 83 85 81 89 85 96 91 91 82 85 88 83 86 89 86 85 94 90 86 88 77 73 77 75 73 73 74 77 77 78 82 89 85 90 88 88 88
86 79 82 87 86 85 87 74 85 89 68 57 81 91 98 80 88 86 83 89 83 80 89 83 82 70 66 72 74 71 73 74 75 80 79 78 81 83 84 87 88 86 84
87 84 84 85 83 88 84 82 88 91 73 99 95 90 83 77 87 88 81 86 83 82 82 76 63 60 71 78 73 69 69 74 77 80 81 80 81 82 84 85 85 90 89
83 86 86 85 89 96 92 90 94 94 88 100 93 82 85 74 95 91 86 87 84 90 76 71 62 73 74 73 70 67 67 76 78 79 79 82 84 82 84 88 89 86 91
87 83 86 90 94 94 95 98 95 91 99 98 88 96 92 90 78 87 90 88 84 88 75 69 63 68 69 69 65 61 68 72 76 77 80 81 82 82 85 88 88 90 91
85 88 88 91 96 82 92 99 97 95 95 98 100 84 86 92 99 100 96 83 81 82 75 66 66 69 66 64 63 62 66 66 74 78 82 82 81 87 87 87 89 90 91
85 88 87 86 79 80 88 95 100 95 95 100 96 91 90 97 100 100 100 87 75 78 74 64 60 61 62 64 66 66 68 66 74 78 78 80 83 87 88 88 89 90 90
82 80 91 84 76 79 87 94 99 99 93 92 99 88 90 100 99 100 100 92 72 68 63 63 58 61 66 69 68 67 68 65 72 80 79 83 84 86 88 89 91 91 91
83 88 91 90 88 79 93 98 99 99 99 100 100 92 86 100 100 100 93 84 71 67 60 63 55 61 63 67 72 70 69 69 72 79 80 82 83 85 86 87 90 92 92
81 82 93 96 92 84 99 99 99 97 99 100 98 100 100 100 99 97 87 75 66 65 61 58 47 57 58 67 72 71 71 72 73 77 79 79 80 81 83 85 85 87 89
82 79 86 100 91 83 100 100 99 97 100 100 98 100 96 99 99 90 78 62 57 60 67 53 39 57 54 68 77 76 73 69 71 73 73 74 76 75 72 74 78 80 83
87 84 87 99 97 93 100 100 100 100 100 100 100 100 100 98 100 88 75 61 62 56 51 47 50 55 62 70 76 87 85 80 74 71 71 72 72 72 72 69 69 69 72
100 91 93 100 99 98 100 100 99 99 99 98 100 99 97 97 100 92 77 59 50 47 55 55 52 58 60 68 71 75 86 84 85 80 78 73 68 67 67 68 70 70 70
99 100 91 96 100 100 100 100 100 100 100 100 100 100 100 99 100 98 85 69 62 48 58 63 58 55 62 68 65 64 79 85 75 80 80 77 72 69 67 66 67 68 67
98 98 90 99 100 100 100 100 99 98 99 99 100 99 100 100 95 94 94 81 68 59 63 61 64 60 60 67 64 58 55 57 80 78 71 76 74 74 70 68 68 67 68
97 100 97 100 100 96 100 98 99 99 99 99 100 100 99 100 94 88 90 88 70 70 63 59 63 62 59 62 60 58 54 56 54 71 80 72 74 75 73 70 66 64 65
99 100 100 100 99 92 91 92 90 98 97 100 100 100 100 100 98 92 92 89 78 72 66 62 64 64 57 54 57 55 58 60 71 79 85 80 66 58 62 62 62 59 58

GFSSE_925_rhum_072.txt.gz
RH
62 69 82 87 98 72 67 60 55 54 64 69 68 66 64 66 68 75 80 72 77 88 90 90 88 90 97 97 95 89 90 92 91 94 94 92 97 99 94 91 92 94 91
50 59 73 78 94 67 68 62 57 54 67 69 68 68 67 70 73 77 77 79 88 88 92 83 89 93 98 98 92 92 93 91 92 92 94 95 99 99 95 90 90 92 92
52 55 69 94 100 76 69 64 60 58 65 72 70 69 70 72 76 78 79 82 87 89 92 95 94 96 96 94 93 91 92 92 93 93 97 98 98 98 87 88 86 87 89
58 58 65 75 96 80 73 70 68 68 72 73 73 70 68 71 73 78 83 86 86 87 91 93 96 98 94 95 89 88 89 90 95 93 90 90 96 97 84 84 88 88 88
58 53 64 71 89 78 72 72 70 84 93 81 76 71 70 69 72 87 89 86 86 88 87 96 99 94 95 94 92 89 89 87 85 82 79 78 85 83 80 79 86 92 89
59 56 64 65 68 86 75 83 73 71 78 97 83 78 77 79 82 90 83 81 81 83 87 96 94 96 96 97 91 85 82 81 79 77 75 74 74 87 82 87 85 84 81
66 62 65 68 80 98 94 81 91 72 70 80 81 79 79 84 81 76 78 76 80 81 89 94 93 98 94 93 87 82 77 76 74 76 78 78 81 85 94 94 89 86 87
71 76 68 71 88 97 99 88 71 84 75 70 79 85 84 75 87 80 81 81 80 85 93 91 95 96 93 87 81 77 76 76 76 77 78 80 86 84 83 85 86 88 90
77 79 73 75 84 94 95 78 71 69 75 83 83 93 84 76 62 76 82 87 87 93 89 89 97 95 87 83 79 78 77 76 76 77 78 82 85 89 88 87 88 90 88
78 80 77 82 99 99 77 77 84 78 76 83 91 86 94 82 76 73 87 88 92 89 84 96 96 89 83 80 77 77 76 77 75 78 81 80 78 78 87 84 92 87 88
80 78 81 96 100 91 82 77 77 81 80 75 83 74 88 93 84 86 86 89 92 86 89 96 87 83 79 78 76 76 76 74 74 74 80 78 81 88 86 85 86 88 87
87 78 82 94 98 92 88 78 76 89 83 88 88 79 81 82 86 86 82 89 80 85 93 89 83 76 78 81 79 77 74 75 74 76 78 77 79 82 84 84 83 83 83
82 86 88 88 91 90 87 87 83 90 82 73 74 85 73 81 89 92 74 94 80 89 94 92 81 76 76 80 77 76 74 76 77 78 77 76 80 81 84 81 84 88 89
86 88 83 85 96 96 92 90 82 94 96 96 99 97 93 97 97 88 86 87 82 91 89 72 69 70 77 77 75 73 73 77 77 78 78 76 78 81 81 88 91 88 94
85 88 81 91 99 97 99 93 90 98 100 98 100 100 96 94 98 87 74 96 82 86 78 67 64 69 78 75 70 70 70 74 78 75 79 81 77 80 87 82 85 88 90
77 86 86 99 100 99 98 90 94 100 100 100 100 100 98 95 100 97 98 91 80 81 76 68 69 76 76 72 69 70 70 68 75 76 81 80 78 81 82 85 86 87 89
74 80 91 99 100 99 88 78 92 99 100 100 100 99 99 93 94 99 99 100 84 82 75 66 72 73 74 72 68 71 64 67 74 79 81 80 81 82 83 86 89 90 90
76 82 99 100 99 99 87 76 97 99 100 99 100 100 99 100 97 100 99 100 84 87 76 68 70 70 70 70 76 70 66 68 76 77 81 81 83 84 85 85 88 92 94
74 80 99 100 100 100 96 94 96 99 100 99 98 99 99 100 100 100 100 100 81 87 82 65 65 66 71 75 74 70 70 68 74 78 79 82 82 85 88 88 86 90 92
80 82 98 98 98 93 95 100 100 98 100 100 99 99 99 100 100 100 99 97 82 80 82 68 62 67 69 73 79 79 76 74 75 78 81 82 84 84 84 86 88 89 89
89 92 99 100 95 82 99 100 100 100 100 100 100 99 100 100 100 99 98 92 81 79 80 75 63 65 76 80 86 94 91 85 81 83 83 84 83 84 82 80 81 81 84
98 92 99 98 90 88 87 99 98 100 100 97 100 100 100 98 98 99 91 87 78 74 76 73 62 67 77 78 80 86 96 92 90 87 85 83 80 78 78 76 72 71 74
99 100 100 98 96 91 89 98 95 96 100 100 100 100 100 99 99 93 92 78 66 67 66 68 60 66 74 79 73 72 92 93 87 84 82 76 76 76 75 73 70 70 70
97 100 100 98 98 98 95 100 94 99 97 98 98 100 100 100 99 98 94 84 63 59 55 55 53 62 62 79 74 64 60 64 88 87 82 78 75 74 70 69 70 69 67
94 99 99 99 99 92 98 100 99 100 91 93 98 99 100 100 100 98 93 89 72 55 54 49 55 61 60 71 70 68 61 61 57 72 82 70 65 73 69 66 67 67 68
92 99 100 98 98 99 97 100 99 98 99 99 100 100 100 100 100 100 99 98 85 66 47 54 56 56 57 62 64 63 59 60 68 67 81 76 68 56 58 63 66 67 65

GFSSE_925_rhum_078.txt.gz
RH
48 61 46 47 51 60 71 62 63 71 67 61 56 58 63 69 73 78 79 80 85 89 89 96 96 99 99 98 79 80 86 85 89 89 89 91 96 94 85 87 86 90 90
56 66 43 44 53 60 68 70 61 66 69 66 63 62 68 72 73 75 77 79 84 86 86 93 92 96 98 90 86 88 87 87 88 87 88 94 95 96 89 87 86 95 91
61 73 64 54 55 62 69 68 64 60 69 70 68 66 70 72 75 78 79 81 85 83 86 89 92 96 91 89 89 88 89 88 87 86 88 88 93 93 88 86 89 89 89
54 68 78 59 51 65 67 64 62 63 70 74 75 73 72 78 82 80 79 81 87 83 84 94 98 92 92 88 88 89 88 88 88 85 75 78 87 98 92 90 91 92 91
57 63 72 73 83 84 72 65 63 66 75 85 84 78 77 84 82 82 74 82 87 85 86 94 93 90 92 89 90 89 88 86 81 75 74 77 83 97 96 92 90 91 92
61 66 79 71 99 84 75 70 67 89 100 99 94 84 87 95 88 82 78 80 84 85 87 90 92 95 90 88 88 89 87 81 74 73 80 86 85 96 96 94 95 94 95
67 73 78 62 90 92 74 74 75 75 100 99 98 94 92 94 93 79 84 81 81 84 87 93 92 94 88 87 87 86 86 74 66 74 76 85 93 99 97 90 90 91 90
74 81 87 72 83 94 87 76 77 77 79 100 98 82 93 88 89 78 77 79 77 77 82 92 92 94 89 90 88 87 82 74 63 63 69 81 90 89 91 91 86 85 83
78 83 93 95 97 95 92 85 79 77 72 66 71 70 87 90 90 80 76 77 74 80 93 93 95 93 89 92 89 86 79 71 60 61 62 80 78 75 80 81 81 83 84
77 87 97 99 99 98 97 89 87 79 74 67 71 73 79 83 87 99 91 85 78 82 93 93 96 95 92 92 88 83 78 71 61 62 59 75 81 91 87 84 82 83 82
73 78 97 99 100 97 96 96 92 85 77 76 76 78 78 81 89 82 76 80 75 78 78 91 97 94 94 89 82 78 71 58 58 54 60 76 83 92 93 89 81 82 83
67 75 92 100 98 96 95 100 95 88 83 84 91 83 92 88 92 92 80 78 75 76 87 78 89 89 88 87 86 77 61 59 57 55 65 80 85 91 92 87 86 85 87
58 66 76 97 88 96 98 100 86 78 84 90 95 92 88 92 94 86 77 79 81 81 90 94 90 87 82 77 76 67 61 67 56 55 70 79 83 93 91 89 90 87 90
56 61 75 94 94 97 100 99 99 88 81 89 94 99 95 97 96 90 72 87 84 90 93 93 91 86 81 70 67 66 68 58 57 54 76 78 85 92 89 86 83 87 87
51 60 70 100 99 100 98 98 98 94 100 99 98 97 92 93 90 98 97 98 82 94 86 95 85 86 80 72 71 70 68 63 63 56 70 78 85 81 80 78 80 89 89
49 58 70 91 100 98 100 99 98 99 99 99 98 98 97 96 98 95 98 95 99 89 89 87 84 84 73 68 71 70 68 64 63 56 57 76 79 78 79 91 92 92 90
49 57 78 94 98 98 92 99 100 99 98 99 100 100 100 96 94 98 98 97 99 91 88 85 81 76 68 66 69 72 68 64 60 60 56 63 79 76 77 88 86 91 92
49 60 81 95 99 96 98 99 99 98 99 100 99 100 98 97 96 100 99 99 99 100 92 88 80 72 67 63 65 64 62 63 61 62 57 58 73 78 79 81 83 83 83
50 63 77 88 95 98 99 99 98 99 100 97 98 98 98 98 99 98 98 100 99 100 96 88 77 67 66 62 63 61 62 63 65 59 60 60 61 62 69 78 82 78 80
52 66 77 95 98 96 100 99 99 98 99 98 99 99 99 100 100 100 100 100 100 98 90 86 75 72 63 59 59 61 65 65 65 62 61 62 61 62 59 68 76 76 83
54 64 75 96 98 99 100 100 99 98 98 99 99 99 99 100 100 100 100 100 100 97 92 84 73 69 66 64 60 66 68 71 72 70 69 65 61 65 64 62 62 60 76
56 63 73 88 95 97 94 97 99 99 98 99 98 97 98 99 96 100 99 100 100 100 94 90 76 70 64 66 60 62 74 78 78 75 71 66 65 62 63 66 64 64 63
55 66 70 79 84 89 85 89 94 99 100 100 99 98 88 100 95 100 99 100 100 99 94 83 77 70 67 67 57 52 61 59 64 70 77 72 71 73 64 67 69 70 70
53 65 68 74 80 81 77 84 86 91 98 95 97 98 99 98 100 99 100 100 99 100 97 87 76 72 65 68 65 53 47 40 53 68 68 76 76 77 78 70 69 72 71
51 66 70 74 84 76 76 77 78 93 91 89 99 99 99 100 100 100 100 100 100 99 98 84 76 74 69 62 66 63 62 61 52 44 55 66 74 75 74 78 74 72 76
54 67 72 77 83 77 77 83 87 89 89 86 99 100 100 100 100 100 100 100 98 95 92 88 81 78 72 70 70 66 60 57 54 47 46 49 58 68 74 74 78 78 71

GFSSE_925_rhum_081.txt.gz
RH
27 57 50 57 63 66 64 68 71 69 64 58 56 59 65 69 69 70 71 75 76 78 88 92 91 87 84 74 74 69 69 71 71 76 80 89 96 86 82 84 87 93 90
36 62 43 42 47 63 66 63 69 72 66 60 57 60 65 68 71 74 77 79 80 80 90 89 93 97 96 87 78 80 82 82 83 85 88 92 93 88 86 86 86 96 90
44 58 44 40 44 48 66 68 64 71 70 64 60 61 66 70 76 78 82 82 84 86 93 95 94 93 91 84 86 87 85 84 83 79 80 80 92 91 88 85 88 91 91
43 60 66 44 46 53 58 69 68 65 70 70 66 66 66 74 77 71 82 86 88 89 89 95 96 94 86 86 88 86 86 82 77 74 76 78 88 90 84 83 92 96 94
36 48 59 53 51 58 62 65 68 68 71 77 74 74 70 77 80 72 76 87 87 86 84 86 95 93 84 86 86 85 82 76 72 83 74 79 87 97 94 92 90 89 94
37 41 61 62 53 61 66 64 65 68 78 86 84 81 80 88 80 72 74 87 86 83 83 88 92 88 85 87 84 82 77 74 81 79 83 84 89 98 96 93 94 93 93
43 48 70 60 51 60 70 67 69 73 92 94 94 92 91 86 85 74 74 85 88 83 89 90 90 86 86 87 83 78 71 80 80 81 84 90 98 99 98 97 94 94 94
50 57 78 72 71 74 78 73 74 78 98 95 93 88 90 80 77 75 72 74 72 75 79 86 88 89 88 86 83 78 72 77 76 72 83 94 97 99 100 98 92 93 92
58 65 79 91 89 85 86 81 76 80 84 90 86 75 78 78 85 95 81 75 75 76 82 85 90 91 88 84 84 79 73 74 74 75 78 87 91 97 94 88 87 83 82
63 68 80 88 91 91 92 89 82 78 80 76 75 70 74 79 78 92 91 96 86 85 79 83 77 91 89 85 85 80 70 60 59 62 77 86 85 93 83 80 79 82 85
57 68 91 96 89 83 83 86 86 84 78 78 76 74 74 89 86 81 65 88 94 88 80 78 67 84 82 88 86 80 70 50 52 56 78 75 73 86 92 88 84 82 79
50 60 86 98 86 82 70 86 88 87 85 85 76 85 83 96 98 78 78 61 84 85 77 76 70 69 83 96 90 78 67 52 45 46 75 73 75 93 93 79 80 82 80
44 53 61 96 88 88 72 84 80 74 75 80 80 87 88 97 98 78 74 81 90 81 87 84 77 71 87 82 80 70 59 52 44 53 80 71 80 93 92 84 79 80 78
39 46 56 75 73 73 67 90 72 62 72 78 85 92 89 97 97 88 90 93 88 84 81 86 81 88 85 78 70 59 55 46 45 64 84 75 83 92 90 89 89 86 86
32 43 52 64 67 76 85 94 93 67 69 80 83 93 90 89 93 88 90 94 87 90 75 88 87 91 81 74 64 61 52 50 48 56 74 73 87 90 89 85 88 87 88
30 39 50 70 77 90 97 96 99 94 88 90 87 88 90 90 91 86 87 91 94 94 79 87 90 87 79 71 61 54 52 53 54 50 64 86 80 79 78 81 89 88 88
23 36 51 72 81 79 80 96 96 98 92 95 96 94 90 88 89 86 89 96 98 83 85 89 95 85 68 63 58 59 54 53 54 50 58 73 80 79 77 78 87 91 92
22 36 50 68 80 75 71 86 96 100 97 98 98 91 91 91 97 98 96 99 98 82 94 99 91 81 68 56 58 53 52 52 52 52 50 58 68 70 77 81 81 73 78
24 38 51 71 79 78 75 93 96 97 98 99 99 95 97 98 99 97 99 98 95 92 98 95 90 74 63 62 60 50 51 50 53 50 50 55 67 74 75 80 84 77 74
28 41 54 72 74 76 84 97 92 96 97 96 98 100 100 100 96 99 99 99 100 98 100 95 86 73 61 60 56 51 54 51 50 48 51 54 58 60 62 76 78 78 74
30 44 57 69 73 75 78 86 86 91 92 100 99 99 99 96 99 99 100 98 100 100 99 96 85 73 64 59 57 60 61 61 59 49 50 49 50 53 54 69 71 64 77
35 45 56 69 74 75 71 75 78 87 86 90 99 99 97 95 99 97 99 100 100 100 100 96 94 79 62 61 61 60 82 76 72 67 61 52 52 53 55 56 56 56 59
36 47 55 66 72 74 67 75 82 87 89 93 96 99 98 97 98 98 98 98 100 98 96 88 87 78 67 66 58 55 66 63 61 69 70 63 54 55 52 56 57 56 56
35 45 52 62 68 72 71 76 84 85 82 79 82 90 93 96 97 98 90 100 100 100 96 88 90 83 70 65 60 51 47 38 52 68 65 70 61 60 59 55 58 61 61
35 46 53 58 63 66 68 63 67 63 70 75 77 93 99 99 95 93 100 100 100 100 98 93 90 83 69 62 58 54 51 49 48 50 60 65 69 62 62 66 59 63 63
33 46 56 58 60 62 64 62 63 62 69 74 82 94 98 98 99 100 100 100 100 100 96 92 89 82 71 66 64 60 55 57 55 45 49 52 56 60 63 66 71 66 65

GFSSE_925_rhum_087.txt.gz
RH
70 57 48 45 47 50 52 54 56 56 54 53 51 50 52 55 58 67 71 68 66 67 70 73 72 81 79 76 75 72 72 73 74 73 74 76 77 77 83 84 86 86 86
52 56 49 47 49 52 54 56 59 60 58 56 54 53 52 54 55 64 72 74 74 75 76 75 78 81 78 78 73 72 71 73 72 73 73 74 76 87 91 84 85 87 86
47 55 52 48 49 52 56 59 61 63 62 60 58 56 56 55 57 63 71 77 77 88 87 79 83 80 75 74 72 70 72 74 74 73 73 78 84 92 90 82 86 87 88
40 52 53 45 45 50 59 65 66 68 68 66 61 59 58 59 63 65 70 75 75 84 88 87 92 87 70 69 68 69 73 76 81 76 79 86 91 91 85 88 90 93 92
39 44 44 41 39 50 63 65 67 70 72 71 68 63 63 60 63 67 71 74 77 85 90 96 96 78 70 72 72 72 74 77 83 79 83 87 91 92 95 93 94 94 92
35 39 35 36 39 45 58 66 69 71 75 75 74 70 67 65 68 68 70 74 81 83 86 92 89 80 73 75 75 77 77 82 84 86 85 90 94 94 94 94 94 92 94
50 47 34 36 38 44 49 62 69 73 75 77 79 78 76 71 71 71 70 72 79 83 78 91 86 79 78 78 78 78 83 83 86 87 83 88 95 100 96 94 94 94 95
50 56 52 48 40 45 54 61 66 69 73 81 84 86 87 80 77 75 72 73 76 80 80 81 78 82 80 79 82 82 86 84 83 84 85 91 90 95 98 96 96 97 95
52 59 61 55 45 48 63 67 65 68 74 86 86 86 85 89 90 82 81 81 86 85 98 94 76 84 82 81 81 85 86 83 84 89 86 88 91 96 98 98 98 93 89
51 63 66 58 52 57 69 73 71 72 75 87 88 88 92 92 90 85 85 83 78 56 60 93 88 80 83 79 81 83 84 82 81 82 83 83 85 100 100 94 91 86 85
62 62 74 65 60 60 62 71 76 74 77 80 92 92 88 81 83 88 84 86 71 45 56 80 98 79 68 73 78 77 71 72 74 79 72 85 80 94 79 86 77 78 80
67 73 76 78 77 75 78 77 75 74 77 78 79 80 84 83 82 85 85 76 58 59 75 76 99 81 69 71 75 72 72 74 77 75 78 89 96 99 80 80 75 76 82
62 77 76 76 89 87 89 80 80 77 76 75 73 75 82 85 82 88 90 73 76 73 83 73 93 80 68 69 72 66 70 75 79 76 82 90 93 98 90 74 74 77 77
68 68 67 71 71 81 84 80 76 84 83 77 75 81 88 90 87 91 90 87 82 89 84 94 77 83 74 68 65 63 66 69 75 81 88 85 82 95 99 82 77 77 81
50 75 66 73 66 71 82 85 74 86 85 77 80 84 87 91 96 95 93 84 77 81 81 96 76 77 82 73 61 61 71 69 72 74 83 78 84 91 92 93 85 86 84
16 66 68 73 67 65 71 83 70 84 83 81 82 82 85 88 94 96 89 77 77 88 90 82 68 74 80 75 69 62 70 69 70 68 78 86 87 85 86 84 81 85 90
12 28 75 68 72 68 69 82 73 85 81 82 83 84 87 90 93 94 93 90 80 89 97 88 78 79 74 74 77 64 62 70 68 76 82 85 88 79 74 80 78 80 86
9 19 71 72 74 79 76 76 74 88 87 84 81 86 89 88 86 87 96 94 94 92 88 90 81 82 81 84 84 72 67 70 70 71 72 86 82 81 80 74 77 79 82
9 18 75 73 74 77 76 76 74 88 89 91 85 83 86 91 87 81 92 96 97 94 91 82 82 83 88 91 87 81 58 64 67 64 68 74 78 77 75 75 74 72 77
10 22 69 74 81 78 74 85 88 86 90 94 85 77 78 84 89 92 91 91 92 96 91 89 88 87 86 100 96 81 53 52 67 67 66 64 72 71 72 76 76 74 75
11 51 77 83 86 77 92 94 92 88 91 100 86 80 77 80 88 91 92 91 94 92 89 92 94 88 98 100 94 74 54 51 53 66 66 65 67 68 68 73 79 74 74
17 58 81 84 85 86 92 91 93 88 90 91 91 81 77 86 89 88 88 98 99 95 100 99 88 100 100 96 84 69 84 68 56 66 68 67 67 70 71 70 72 71 69
39 70 85 87 84 86 88 85 85 85 89 92 91 80 79 82 92 92 93 100 100 98 100 100 97 92 98 97 78 62 79 80 72 68 68 68 64 65 69 71 72 68 68
66 77 83 84 81 83 82 79 88 95 97 94 84 82 86 92 96 100 99 94 97 99 100 99 100 96 96 93 86 62 55 59 72 86 62 58 67 69 70 73 70 69 67
61 76 80 82 81 80 77 75 80 84 85 82 80 84 93 98 96 97 98 100 99 100 99 100 100 99 95 92 79 62 58 56 57 84 90 73 56 58 60 62 65 67 66
58 71 77 81 80 76 74 76 80 81 83 80 85 93 94 90 96 98 98 100 99 100 100 100 100 99 96 94 82 68 58 66 64 71 88 85 66 59 61 57 59 62 61